Location: Gradaro
(45.0833°N, 10.8833°E)
Time: 15:20:49
(UTC+00:00)

ATLAS 3B R/B - Pass Details

Date: 29 November 2020
Orbit: 1013 x 1182 km, 63.8° (Epoch: 08 January)

Event Time Altitude Azimuth Distance (km) Brightness Sun altitude
Exits shadow 03:30:35 33° 358° (N) 1,733 3.7 -31.5°
Maximum altitude 03:32:58 44° 42° (NE) 1,484 3.6 -31.1°
Drops below altitude 10° 03:39:44 10° 113° (ESE) 3,007 5.8 -29.9°
Sets 03:42:38 0° 120° (ESE) 3,988 6.6 -29.4°
